Retour au catalogue

COSMOS 1275 DEB

ActifPO
NORAD 42209·DEBRIS·🇷🇺 Russia

Lancé Jun 4, 1981 depuis Plesetsk Cosmodrome

Loading…

Prochains Passages (prochaines 24 heures)

TLE

FraisSource: Space-Track

Époque: Sep 14, 2026, 21:39 UTC

1 42209U 81053TZ  26257.90218169  .00000341  00000-0  26602-3 0  9999
2 42209  82.8779 324.7047 0052210 343.1379  16.8046 13.88954341648118

Suivez COSMOS 1275 DEB en temps réel avec AllMySat

Download on the App Store